Tracking 23731 objects as of 26-Sep-2021
HD Live streaming from Space Station
objects crossing your sky now

GALAXY 26 (TELSTAR 6)

Track GALAXY 26 (TELSTAR 6) now!
GALAXY 26 (TELSTAR 6) is classified as:


NORAD ID: 25626
Int'l Code: 1999-005A
Perigee: 36,133.7 km
Apogee: 36,176.3 km
Inclination: 7.9 °
Period: 1,454.6 minutes
Semi major axis: 42525 km
RCS: 36.2015 m2 (large)
Launch date: February 15, 1999
Source: United States (US)
Launch site: TYURATAM MISSILE AND SPACE COMPLEX (TTMTR)

24 C-band, 28 Ku-band; U.S., southern Canada, Mexico, Caribbean.
aabbcc
Your satellite tracking list
Your tracking list is empty




NASA's NSSDC Master Catalog

Two Line Element Set (TLE):
1 25626U 99005A   21268.50976248 -.00000124  00000-0  00000-0 0  9992
2 25626   7.9485  61.6619 0005015  73.2783 342.6970  0.98996764 26913
Source of the keplerian elements: AFSPC